Weather History for EDDK - January, 2013

Change the Weather History Date:

Wednesday, January 2, 2013

  Actual Average Record
Temperature  
Mean Temperature 42 °F -  
Max Temperature 46 °F 40 °F 57 °F (2003)
Min Temperature 37 °F 30 °F 0 °F (1997)
Degree Days  
Heating Degree Days 24    
Moisture  
Dew Point 37 °F    
Average Humidity 82    
Maximum Humidity 93    
Minimum Humidity 63    
Precipitation  
Precipitation 0.00 in - - ()
Sea Level Pressure  
Sea Level Pressure 30.19 in    
Wind  
Wind Speed 7 mph ()    
Max Wind Speed 12 mph    
Max Gust Speed -    
Visibility 8.7 miles    
Events Rain    
Averages and records for this station are not official NWS values.
T = Trace of Precipitation, MM = Missing Value Source: Averaged Metar Reports

Daily Weather History Graph

Daily Weather History Graph

Search for Another Location

Airport or City:

Trip Planner

Search our weather history database for the weather conditions in past years. The results will help you decide how hot, cold, wet, or windy it might be!

Date:

Astronomy

Jan. 02, 2013 Rise Set
Actual Time 8:33 AM CET 4:37 PM CET
Civil Twilight 7:54 AM CET 5:16 PM CET
Nautical Twilight 7:12 AM CET 5:58 PM CET
Astronomical Twilight 6:32 AM CET 6:38 PM CET
Moon 10:31 PM CET 10:33 AM CET
Length of Visible Light 9h 21m
Length of Day
8h 03m
Waning Gibbous, 77% of the Moon is Illuminated
Jan 2
Waning Gibbous
Jan 5
Last Quarter
Jan 11
New
Jan 19
First Quarter
Jan 27
Full

Hourly Weather History & Observations

Time (CET) Temp. Windchill Dew Point Humidity Pressure Visibility Wind Dir Wind Speed Gust Speed Precip Events Conditions
12:00 AM 39 °F - 35 °F 82% 29.97 in 25 mi SW 6.7 mph - -   Mostly Cloudy
12:20 AM 39.2 °F 33.6 °F 35.6 °F 87% 29.95 in 6.2 mi SW 8.1 mph - N/A   Mostly Cloudy
12:50 AM 39.2 °F 34.2 °F 35.6 °F 87% 29.95 in 6.2 mi SSW 6.9 mph - N/A   Mostly Cloudy
1:00 AM 39 °F - 35 °F 80% 29.98 in 25 mi SSW 6.7 mph - - Rain Light Rain
1:20 AM 39.2 °F 34.2 °F 35.6 °F 87% 29.98 in 6.2 mi SSW 6.9 mph - N/A   Mostly Cloudy
1:50 AM 39.2 °F 34.2 °F 35.6 °F 87% 29.98 in 6.2 mi SW 6.9 mph - N/A   Mostly Cloudy
2:00 AM 39 °F - 35 °F 79% 29.99 in 22 mi SW 6.7 mph - -   Mostly Cloudy
2:20 AM 39.2 °F 33.6 °F 35.6 °F 87% 29.98 in 6.2 mi SW 8.1 mph - N/A   Mostly Cloudy
2:50 AM 39.2 °F 33.6 °F 35.6 °F 87% 29.98 in 6.2 mi SSW 8.1 mph - N/A   Mostly Cloudy
3:00 AM 40 °F - 35 °F 76% 30.01 in 22 mi SW 6.7 mph - -   Mostly Cloudy
3:20 AM 39.2 °F 33.0 °F 35.6 °F 87% 30.01 in 6.2 mi SW 9.2 mph - N/A   Mostly Cloudy
3:50 AM 39.2 °F 34.2 °F 35.6 °F 87% 30.01 in 6.2 mi WSW 6.9 mph - N/A   Mostly Cloudy
4:00 AM 40 °F - 36 °F 79% 30.04 in 22 mi SW 6.7 mph - - Rain Light Rain
4:20 AM 41.0 °F 35.8 °F 35.6 °F 81% 30.04 in 6.2 mi WSW 8.1 mph - N/A   Mostly Cloudy
4:50 AM 41.0 °F 35.2 °F 35.6 °F 81% 30.04 in 6.2 mi WSW 9.2 mph - N/A   Mostly Cloudy
5:00 AM 40 °F - 36 °F 81% 30.05 in 22 mi West 8.9 mph - -   Mostly Cloudy
5:20 AM 39.2 °F 32.0 °F 37.4 °F 93% 30.04 in 5.6 mi West 11.5 mph - N/A Rain Light Rain
5:50 AM 39.2 °F 33.0 °F 37.4 °F 93% 30.04 in 6.2 mi WSW 9.2 mph - N/A   Mostly Cloudy
6:00 AM 39 °F - 37 °F 89% 30.07 in 22 mi SW 8.9 mph - - Rain Light Rain
6:20 AM 39.2 °F 34.2 °F 37.4 °F 93% 30.06 in 6.2 mi WSW 6.9 mph - N/A   Mostly Cloudy
6:50 AM 39.2 °F 33.6 °F 37.4 °F 93% 30.09 in 6.2 mi WSW 8.1 mph - N/A   Mostly Cloudy
7:00 AM 40 °F - 37 °F 84% 30.11 in 19 mi WSW 8.9 mph - - Rain Light Rain
7:20 AM 39.2 °F 33.6 °F 37.4 °F 93% 30.09 in 6.2 mi West 8.1 mph - N/A   Mostly Cloudy
7:50 AM 41.0 °F 35.2 °F 37.4 °F 87% 30.12 in 6.2 mi West 9.2 mph - N/A   Mostly Cloudy
8:00 AM 40 °F - 37 °F 85% 30.14 in 19 mi West 8.9 mph - -   Overcast
8:20 AM 41.0 °F 37.1 °F 37.4 °F 87% 30.12 in 6.2 mi West 5.8 mph - N/A   Mostly Cloudy
8:50 AM 41.0 °F 37.1 °F 37.4 °F 87% 30.15 in 6.2 mi West 5.8 mph - N/A   Mostly Cloudy
9:00 AM 40 °F - 37 °F 85% 30.18 in 16 mi West 4.5 mph - -   Mostly Cloudy
9:20 AM 41.0 °F 37.1 °F 37.4 °F 87% 30.18 in 6.2 mi WSW 5.8 mph - N/A   Mostly Cloudy
9:50 AM 41.0 °F 37.1 °F 39.2 °F 93% 30.18 in 6.2 mi WSW 5.8 mph - N/A   Mostly Cloudy
10:00 AM 41 °F - 38 °F 85% 30.21 in 16 mi West 6.7 mph - -   Overcast
10:20 AM 41.0 °F 34.7 °F 39.2 °F 93% 30.18 in 6.2 mi West 10.4 mph - N/A   Mostly Cloudy
10:50 AM 42.8 °F 36.6 °F 39.2 °F 87% 30.21 in 6.2 mi West 11.5 mph - N/A   Mostly Cloudy
11:00 AM 42 °F - 39 °F 85% 30.23 in 14 mi West 8.9 mph - -   Mostly Cloudy
11:20 AM 42.8 °F 36.6 °F 39.2 °F 87% 30.21 in 6.2 mi West 11.5 mph - N/A   Mostly Cloudy
11:50 AM 42.8 °F 36.6 °F 39.2 °F 87% 30.21 in 6.2 mi West 11.5 mph - N/A   Mostly Cloudy
12:00 PM 43 °F - 39 °F 81% 30.25 in 14 mi West 8.9 mph - -   Mostly Cloudy
12:20 PM 42.8 °F 36.6 °F 39.2 °F 87% 30.24 in 6.2 mi West 11.5 mph - N/A   Mostly Cloudy
12:50 PM 44.6 °F 39.7 °F 39.2 °F 81% 30.24 in 6.2 mi West 9.2 mph - N/A   Mostly Cloudy
1:00 PM 44 °F - 39 °F 78% 30.25 in 16 mi West 8.9 mph - -   Mostly Cloudy
1:20 PM 44.6 °F 39.7 °F 39.2 °F 81% 30.24 in 6.2 mi West 9.2 mph - N/A   Mostly Cloudy
1:50 PM 44.6 °F 38.8 °F 39.2 °F 81% 30.24 in 6.2 mi West 11.5 mph - N/A   Mostly Cloudy
2:00 PM 44 °F - 39 °F 76% 30.27 in 17 mi West 8.9 mph - -   Mostly Cloudy
2:20 PM 46.4 °F 41.9 °F 41.0 °F 81% 30.24 in 6.2 mi WSW 9.2 mph - N/A   Scattered Clouds
2:50 PM 44.6 °F 38.8 °F 37.4 °F 76% 30.27 in 6.2 mi West 11.5 mph - N/A   Mostly Cloudy
3:00 PM 44 °F - 38 °F 73% 30.28 in 19 mi West 6.7 mph - -   Mostly Cloudy
3:20 PM 44.6 °F 39.7 °F 39.2 °F 81% 30.27 in 6.2 mi West 9.2 mph - N/A   Scattered Clouds
3:50 PM 42.8 °F 36.6 °F 37.4 °F 81% 30.30 in 6.2 mi West 11.5 mph - N/A   Scattered Clouds
4:00 PM 44 °F - 38 °F 73% 30.31 in 19 mi West 8.9 mph - -   Mostly Cloudy
4:20 PM 42.8 °F 38.6 °F 37.4 °F 81% 30.30 in 6.2 mi WSW 6.9 mph - N/A   Mostly Cloudy
4:50 PM 42.8 °F 38.6 °F 37.4 °F 81% 30.30 in 6.2 mi WSW 6.9 mph - N/A   Mostly Cloudy
5:00 PM 43 °F - 38 °F 75% 30.33 in 19 mi WSW 6.7 mph - -   Mostly Cloudy
5:20 PM 42.8 °F 39.3 °F 37.4 °F 81% 30.30 in 6.2 mi SSW 5.8 mph - N/A   Mostly Cloudy
5:50 PM 42.8 °F 37.5 °F 37.4 °F 81% 30.33 in 6.2 mi SW 9.2 mph - N/A   Mostly Cloudy
6:00 PM 44 °F - 37 °F 68% 30.35 in 22 mi SW 6.7 mph - -   Mostly Cloudy
6:20 PM 42.8 °F 38.6 °F 37.4 °F 81% 30.33 in 6.2 mi SSW 6.9 mph - N/A   Mostly Cloudy
6:50 PM 42.8 °F 38.6 °F 35.6 °F 76% 30.33 in 6.2 mi SSW 6.9 mph - N/A   Mostly Cloudy
7:00 PM 43 °F - 36 °F 69% 30.35 in 22 mi SSW 4.5 mph - -   Overcast
7:20 PM 42.8 °F 38.0 °F 35.6 °F 76% 30.33 in 6.2 mi SSW 8.1 mph - N/A   Overcast
7:50 PM 42.8 °F 37.5 °F 35.6 °F 76% 30.33 in 6.2 mi SSW 9.2 mph - N/A   Overcast
8:00 PM 44 °F - 36 °F 63% 30.36 in 19 mi SSW 8.9 mph - -   Overcast
8:20 PM 42.8 °F 38.0 °F 35.6 °F 76% 30.36 in 6.2 mi SSW 8.1 mph - N/A   Overcast
8:50 PM 42.8 °F 37.5 °F 35.6 °F 76% 30.33 in 6.2 mi South 9.2 mph - N/A   Overcast
9:00 PM 43 °F - 36 °F 68% 30.36 in 19 mi South 8.9 mph - -   Overcast
9:20 PM 42.8 °F 38.0 °F 35.6 °F 76% 30.33 in 6.2 mi South 8.1 mph - N/A   Overcast
9:50 PM 42.8 °F 38.0 °F 35.6 °F 76% 30.36 in 6.2 mi South 8.1 mph - N/A   Overcast
10:00 PM 43 °F - 36 °F 68% 30.37 in 19 mi SSW 6.7 mph - -   Overcast
10:20 PM 42.8 °F 38.0 °F 35.6 °F 76% 30.36 in 6.2 mi SSW 8.1 mph - N/A   Mostly Cloudy
10:50 PM 42.8 °F 37.5 °F 37.4 °F 81% 30.36 in 6.2 mi South 9.2 mph - N/A   Mostly Cloudy
11:20 PM 42.8 °F 38.0 °F 37.4 °F 81% 30.36 in 6.2 mi South 8.1 mph - N/A   Mostly Cloudy
11:50 PM 42.8 °F 38.0 °F 37.4 °F 81% 30.36 in 6.2 mi South 8.1 mph - N/A   Mostly Cloudy